Location: Kimberly
(42.5380°N, 114.3640°W)
Time: 03:53:29
(UTC-07:00)

OTV 5 (USA 277) - Visible Passes

Search period start: 18 February 2018 00:00
Search period end: 28 February 2018 00:00
Orbit: 404 x 417 km, 43.0° (Epoch: 07 September)

Date Brightness Start Highest point End Pass type
(mag) Time Alt. Az. Time Alt. Az. Time Alt. Az.
18 Feb ? 06:35:52 10° S 06:37:27 13° SE 06:39:03 10° ESE visible
20 Feb ? 06:29:29 10° SSW 06:32:19 27° SSE 06:35:10 10° E visible
21 Feb ? 05:40:16 16° S 05:41:23 19° SSE 05:43:48 10° E visible
22 Feb ? 04:51:52 11° ESE 04:51:52 11° ESE 04:52:06 10° ESE visible
22 Feb ? 06:24:37 14° SW 06:27:19 52° SSE 06:30:32 10° E visible
23 Feb ? 05:36:06 37° SSE 05:36:19 38° SSE 05:39:24 10° E visible
24 Feb ? 04:47:29 14° E 04:47:29 14° E 04:48:12 10° E visible
24 Feb ? 06:20:15 19° WSW 06:22:27 84° S 06:25:45 10° E visible
25 Feb ? 05:31:35 66° SE 05:31:35 66° SE 05:34:40 10° E visible
26 Feb ? 04:42:52 15° E 04:42:52 15° E 04:43:34 10° E visible
26 Feb ? 06:15:37 21° W 06:17:39 80° N 06:20:57 10° E visible
27 Feb ? 05:26:53 71° ENE 05:26:53 71° ENE 05:29:51 10° E visible
